MTN001 KMTJ-KDFW

Flight info

Callsign MTN001
Flight time N/A
Altitude 35000
Route HBU3 HBU PNH MDANO VKTRY2
Aircraft E75L/M-SDE3GILORVW/S

Departure

Time 2026-04-17 13:21
Airport Montrose Regional Airport (KMTJ)

Arrival

Time N/A
Airport Dallas Fort Worth International Airport (KDFW)
Time Latitude Longitude Altitude Speed Heading
2026-04-17 13:03 38.50115 -107.89928 5732 ft 0 kts 226°
2026-04-17 13:13 38.50124 -107.89916 5726 ft 4 kts 226°
2026-04-17 13:13 38.50143 -107.89892 5729 ft 4 kts 226°
2026-04-17 13:13 38.50147 -107.89887 5723 ft 0 kts 226°
2026-04-17 13:16 38.50145 -107.89892 5723 ft 0 kts 255°
2026-04-17 13:16 38.50157 -107.89912 5731 ft 8 kts
2026-04-17 13:16 38.50231 -107.89832 5725 ft 12 kts 50°
2026-04-17 13:17 38.50230 -107.89721 5729 ft 19 kts 140°
2026-04-17 13:17 38.50147 -107.89613 5731 ft 19 kts 99°
2026-04-17 13:17 38.50202 -107.89479 5736 ft 18 kts 53°
2026-04-17 13:17 38.50242 -107.89392 5736 ft 0 kts 69°
2026-04-17 13:18 38.50243 -107.89391 5737 ft 3 kts 69°
2026-04-17 13:18 38.50247 -107.89376 5740 ft 0 kts 72°
2026-04-17 13:18 38.50247 -107.89374 5740 ft 0 kts 72°
2026-04-17 13:19 38.50249 -107.89367 5740 ft 4 kts 73°
2026-04-17 13:19 38.50267 -107.89286 5740 ft 12 kts 51°
2026-04-17 13:19 38.50306 -107.89267 5735 ft 0 kts 359°
2026-04-17 13:20 38.50466 -107.89268 5739 ft 56 kts 358°
2026-04-17 13:20 38.51081 -107.89271 5725 ft 120 kts
2026-04-17 13:20 38.52081 -107.89288 5913 ft 160 kts 358°
2026-04-17 13:21 38.53118 -107.89016 7037 ft 134 kts 18°
2026-04-17 13:21 38.53928 -107.88321 6979 ft 174 kts 41°
2026-04-17 13:21 38.54739 -107.86833 7551 ft 208 kts 75°
2026-04-17 13:21 38.54825 -107.84990 8943 ft 207 kts 85°
2026-04-17 13:22 38.55104 -107.83070 9523 ft 242 kts 75°
2026-04-17 13:22 38.55441 -107.80817 10163 ft 274 kts 84°
2026-04-17 13:22 38.55342 -107.78237 10645 ft 297 kts 101°
2026-04-17 13:22 38.54968 -107.75684 10623 ft 291 kts 102°
2026-04-17 13:23 38.54579 -107.73039 10872 ft 313 kts 102°
2026-04-17 13:23 38.54167 -107.70272 11696 ft 309 kts 103°
2026-04-17 13:23 38.53800 -107.67558 12529 ft 319 kts 103°
2026-04-17 13:23 38.53283 -107.64699 12827 ft 340 kts 109°
2026-04-17 13:24 38.52753 -107.61689 13169 ft 366 kts 99°
2026-04-17 13:24 38.52766 -107.58358 13726 ft 383 kts 89°
2026-04-17 13:24 38.52918 -107.54934 14430 ft 389 kts 92°
2026-04-17 13:24 38.52930 -107.51450 15143 ft 394 kts 95°
2026-04-17 13:25 38.52825 -107.47920 15845 ft 401 kts 97°
2026-04-17 13:25 38.52769 -107.44320 16532 ft 409 kts 95°
2026-04-17 13:25 38.52640 -107.40673 17251 ft 413 kts 99°
2026-04-17 13:25 38.52272 -107.37029 17981 ft 416 kts 105°
2026-04-17 13:26 38.51696 -107.33385 18649 ft 420 kts 109°
2026-04-17 13:26 38.51020 -107.29738 19275 ft 424 kts 110°
2026-04-17 13:26 38.50290 -107.26065 19913 ft 429 kts 111°
2026-04-17 13:26 38.49545 -107.22407 20521 ft 434 kts 111°
2026-04-17 13:27 38.48767 -107.18659 21114 ft 439 kts 112°
2026-04-17 13:27 38.47965 -107.14873 21714 ft 444 kts 112°
2026-04-17 13:27 38.47137 -107.11051 22298 ft 448 kts 113°
2026-04-17 13:27 38.46290 -107.07197 22890 ft 453 kts 113°
2026-04-17 13:28 38.45320 -107.03392 23595 ft 443 kts 123°
2026-04-17 13:28 38.43847 -107.00043 24442 ft 425 kts 134°
2026-04-17 13:28 38.42098 -106.97013 25031 ft 423 kts 137°
2026-04-17 13:28 38.40304 -106.94012 25510 ft 429 kts 136°
2026-04-17 13:29 38.38516 -106.90924 26007 ft 434 kts 135°
2026-04-17 13:29 38.36740 -106.87793 26501 ft 438 kts 135°
2026-04-17 13:29 38.34982 -106.84654 26966 ft 442 kts 134°
2026-04-17 13:29 38.33196 -106.81454 27427 ft 445 kts 134°
2026-04-17 13:30 38.31397 -106.78230 27888 ft 448 kts 134°
2026-04-17 13:30 38.29588 -106.74989 28375 ft 449 kts 134°
2026-04-17 13:30 38.27775 -106.71746 28885 ft 450 kts 134°
2026-04-17 13:30 38.25956 -106.68493 29315 ft 453 kts 134°
2026-04-17 13:31 38.24119 -106.65219 29820 ft 455 kts 134°
2026-04-17 13:31 38.22267 -106.61923 30130 ft 458 kts 134°
2026-04-17 13:31 38.20419 -106.58630 30649 ft 456 kts 133°
2026-04-17 13:31 38.18587 -106.55353 31223 ft 453 kts 133°
2026-04-17 13:32 38.16763 -106.52106 31717 ft 450 kts 133°
2026-04-17 13:32 38.14948 -106.48880 32193 ft 448 kts 133°
2026-04-17 13:32 38.13133 -106.45659 32645 ft 447 kts 133°
2026-04-17 13:32 38.11319 -106.42447 33066 ft 447 kts 133°
2026-04-17 13:33 38.09537 -106.39291 33507 ft 445 kts 133°
2026-04-17 13:33 38.07732 -106.36100 33927 ft 444 kts 133°
2026-04-17 13:33 38.05923 -106.32905 34225 ft 445 kts 133°
2026-04-17 13:33 38.04113 -106.29714 34517 ft 446 kts 133°
2026-04-17 13:34 38.02302 -106.26523 34879 ft 445 kts 133°
2026-04-17 13:34 38.00470 -106.23304 34886 ft 453 kts 133°
2026-04-17 13:34 37.96699 -106.16708 34814 ft 471 kts 133°
2026-04-17 13:35 37.92846 -106.09965 34792 ft 477 kts 133°
2026-04-17 13:35 37.88941 -106.03135 34769 ft 478 kts 133°
2026-04-17 13:36 37.85033 -105.96318 34742 ft 478 kts 133°
2026-04-17 13:36 37.81115 -105.89502 34755 ft 479 kts 133°
2026-04-17 13:37 37.77184 -105.82667 34775 ft 480 kts 133°
2026-04-17 13:37 37.73273 -105.75887 34799 ft 480 kts 133°
2026-04-17 13:38 37.69325 -105.69097 34812 ft 479 kts 134°
2026-04-17 13:38 37.65392 -105.62337 34815 ft 476 kts 133°
2026-04-17 13:39 37.61482 -105.55614 34808 ft 474 kts 133°
2026-04-17 13:39 37.57607 -105.48955 34780 ft 472 kts 133°
2026-04-17 13:40 37.53720 -105.42288 34773 ft 471 kts 132°
2026-04-17 13:40 37.49839 -105.35644 34764 ft 470 kts 132°
2026-04-17 13:41 37.45965 -105.29024 34757 ft 469 kts 132°
2026-04-17 13:41 37.42092 -105.22421 34746 ft 468 kts 132°
2026-04-17 13:42 37.38246 -105.15874 34740 ft 468 kts 132°
2026-04-17 13:42 37.34369 -105.09290 34731 ft 468 kts 132°
2026-04-17 13:43 37.30492 -105.02718 34727 ft 468 kts 132°
2026-04-17 13:43 37.26610 -104.96147 34713 ft 467 kts 132°
2026-04-17 13:44 37.22684 -104.89636 34714 ft 467 kts 133°
2026-04-17 13:44 37.18752 -104.83095 34708 ft 470 kts 133°
2026-04-17 13:45 37.14837 -104.76548 34710 ft 473 kts 133°
2026-04-17 13:45 37.10893 -104.69918 34738 ft 475 kts 134°
2026-04-17 13:46 37.06926 -104.63256 34762 ft 477 kts 134°
2026-04-17 13:46 37.02941 -104.56570 34767 ft 479 kts 134°
2026-04-17 13:47 36.98937 -104.49871 34792 ft 481 kts 134°
2026-04-17 13:47 36.94957 -104.43217 34820 ft 480 kts 134°
2026-04-17 13:48 36.90953 -104.36529 34828 ft 480 kts 135°
2026-04-17 13:48 36.86935 -104.29853 34829 ft 481 kts 135°
2026-04-17 13:49 36.82942 -104.23210 34807 ft 480 kts 135°
2026-04-17 13:49 36.78915 -104.16527 34791 ft 482 kts 136°
2026-04-17 13:50 36.74862 -104.09851 34752 ft 483 kts 136°
2026-04-17 13:50 36.70809 -104.03162 34733 ft 483 kts 136°
2026-04-17 13:51 36.67434 -103.97622 34727 ft 482 kts 136°
2026-04-17 13:51 36.62710 -103.89879 34727 ft 483 kts 136°
2026-04-17 13:52 36.58671 -103.83187 34721 ft 483 kts 136°
2026-04-17 13:52 36.55295 -103.77649 34716 ft 483 kts 137°
2026-04-17 13:53 36.51208 -103.71007 34714 ft 484 kts 137°
2026-04-17 13:53 36.47117 -103.64356 34708 ft 483 kts 137°
2026-04-17 13:54 36.40994 -103.54406 34736 ft 483 kts 137°
2026-04-17 13:55 36.34857 -103.44466 34764 ft 484 kts 137°
2026-04-17 13:56 36.26702 -103.31237 34784 ft 484 kts 138°
2026-04-17 13:56 36.22592 -103.24634 34776 ft 484 kts 138°
2026-04-17 13:57 36.18485 -103.18035 34759 ft 484 kts 138°
2026-04-17 13:58 36.12309 -103.08127 34723 ft 485 kts 138°
2026-04-17 13:58 36.06146 -102.98275 34713 ft 485 kts 139°
2026-04-17 13:59 35.99942 -102.88374 34755 ft 485 kts 139°
2026-04-17 14:00 35.95797 -102.81785 34786 ft 485 kts 139°
2026-04-17 14:00 35.91657 -102.75214 34799 ft 485 kts 139°
2026-04-17 14:01 35.87531 -102.68662 34821 ft 485 kts 139°
2026-04-17 14:01 35.83376 -102.62078 34819 ft 485 kts 139°
2026-04-17 14:02 35.79230 -102.55513 34794 ft 485 kts 139°
2026-04-17 14:02 35.75074 -102.48969 34764 ft 485 kts 139°
2026-04-17 14:03 35.70911 -102.42420 34733 ft 485 kts 139°
2026-04-17 14:03 35.66781 -102.35924 34733 ft 485 kts 139°
2026-04-17 14:04 35.62615 -102.29389 34746 ft 485 kts 139°
2026-04-17 14:04 35.58441 -102.22864 34740 ft 485 kts 140°
2026-04-17 14:05 35.54253 -102.16329 34730 ft 486 kts 140°
2026-04-17 14:05 35.50073 -102.09795 34721 ft 486 kts 139°
2026-04-17 14:06 35.45913 -102.03315 34725 ft 486 kts 140°
2026-04-17 14:06 35.41709 -101.96798 34766 ft 486 kts 140°
2026-04-17 14:07 35.37532 -101.90354 34815 ft 486 kts 140°
2026-04-17 14:07 35.33326 -101.83855 34853 ft 486 kts 140°
2026-04-17 14:08 35.29127 -101.77334 34901 ft 487 kts 139°
2026-04-17 14:08 35.24931 -101.70829 34895 ft 486 kts 140°
2026-04-17 14:09 35.21271 -101.63752 34899 ft 506 kts 127°
2026-04-17 14:09 35.18136 -101.56026 34876 ft 506 kts 127°
2026-04-17 14:10 35.14950 -101.48353 34831 ft 506 kts 127°
2026-04-17 14:10 35.11738 -101.40692 34798 ft 506 kts 127°
2026-04-17 14:11 35.08523 -101.33056 34761 ft 506 kts 127°
2026-04-17 14:11 35.05302 -101.25417 34748 ft 505 kts 127°
2026-04-17 14:12 35.02101 -101.17834 34751 ft 506 kts 127°
2026-04-17 14:12 34.98865 -101.10203 34750 ft 506 kts 127°
2026-04-17 14:13 34.93997 -100.98763 34751 ft 506 kts 128°
2026-04-17 14:13 34.90749 -100.91152 34753 ft 506 kts 128°
2026-04-17 14:14 34.87526 -100.83595 34750 ft 506 kts 128°
2026-04-17 14:14 34.84277 -100.76010 34760 ft 505 kts 128°
2026-04-17 14:15 34.81021 -100.68423 34759 ft 505 kts 128°
2026-04-17 14:15 34.77758 -100.60842 34765 ft 505 kts 128°
2026-04-17 14:16 34.74494 -100.53268 34764 ft 505 kts 128°
2026-04-17 14:16 34.71250 -100.45761 34784 ft 505 kts 128°
2026-04-17 14:17 34.67977 -100.38202 34811 ft 505 kts 128°
2026-04-17 14:17 34.64704 -100.30643 34830 ft 505 kts 128°
2026-04-17 14:18 34.61421 -100.23101 34839 ft 505 kts 128°
2026-04-17 14:18 34.58138 -100.15572 34841 ft 504 kts 128°
2026-04-17 14:19 34.54871 -100.08082 34831 ft 504 kts 128°
2026-04-17 14:19 34.51582 -100.00569 34823 ft 505 kts 128°
2026-04-17 14:20 34.48279 -99.93031 34811 ft 505 kts 128°
2026-04-17 14:20 34.44999 -99.85555 34796 ft 504 kts 128°
2026-04-17 14:21 34.41693 -99.78066 34797 ft 504 kts 128°
2026-04-17 14:21 34.38384 -99.70564 34796 ft 504 kts 128°
2026-04-17 14:22 34.35071 -99.63077 34804 ft 504 kts 128°
2026-04-17 14:22 34.31744 -99.55613 34812 ft 502 kts 129°
2026-04-17 14:23 34.28257 -99.48312 34812 ft 501 kts 130°
2026-04-17 14:23 34.24770 -99.41078 34805 ft 501 kts 130°